Content
SEND FEEDBACK

Daily
Averages
Monthly
Summary
United States of America

ALVA, OKLAHOMA


Home > North America > United States > Oklahoma
Elevation: 1470 feet     Latitude: 36 46N     Longitude: 098 40W

WEATHER
 
SELECT A DAY
Number of Records: 307,904;   Date Range: 2/12/01 - 12/26/14
 
SHARE

PRINT THIS DATA

[ ← Previous Day ]
WEATHER ALMANAC - FEBRUARY 13, 2013
[ Next Day → ]
[ °C ]   °F
Weather ElementAverageHighLow
Temperature31.1 °F44.6 °F (4:50 pm)19.4 °F (7:10 am)
Dewpoint25.6 °F32 °F (2:30 pm)17.6 °F (7:10 am)
Humidity81.1 %100 % (12:30 am)61 % (4:50 pm)
Barometer30.00 in30.05 in (12:30 am)29.94 in (4:30 pm)
Wind Speed9.8 mph13.8 mph (11:10 am)
Weather ElementAverage
Visibility9.4 mi
Wind DirectionWSW (257 °)

Weather ElementTotal
Precipitation---
Heating Degree Days33 (Base 65)
Averaged from 69 records on February 13, 2013
WEATHER CONDITIONS BREAKOUT
WIND DIRECTION BREAKOUT
WEATHER BY HOUR - FEBRUARY 13, 2013
[ °C ]   °F
Local TimeTemperatureDewpointHumidityBarometerVisibilityWind DirectionWind SpeedGust SpeedPrecipitationEventsConditions
12:30 AM24.8 °F24.8 °F100 %30.05 in7.0 miWSW (240°)10.4 mphPartly Cloudy
12:50 AM24.8 °F24.8 °F100 %30.05 in7.0 miWSW (250°)11.5 mphPartly Cloudy
1:10 AM24.8 °F24.8 °F100 %30.05 in9.0 miWSW (250°)11.5 mphPartly Cloudy
1:30 AM23.0 °F23.0 °F100 %30.05 in8.0 miWSW (240°)10.4 mphClear
1:50 AM24.8 °F24.8 °F100 %30.04 in10.0 miWSW (250°)6.9 mphClear
2:10 AM23.0 °F23.0 °F100 %30.04 in9.0 miWest (270°)5.8 mphClear
2:30 AM26.6 °F26.6 °F100 %30.03 in10.0 miWest (270°)9.2 mphClear
2:50 AM26.6 °F26.6 °F100 %30.02 in10.0 miWest (280°)6.9 mphClear
3:10 AM24.8 °F24.8 °F100 %30.02 in10.0 miWest (280°)8.1 mphPartly Cloudy
3:30 AM24.8 °F23.0 °F93 %30.01 in10.0 miWest (280°)9.2 mphPartly Cloudy
3:50 AM24.8 °F23.0 °F93 %30.00 in10.0 miWest (260°)9.2 mphClear
4:10 AM24.8 °F23.0 °F93 %30.00 in10.0 miWest (260°)9.2 mphClear
4:30 AM24.8 °F23.0 °F93 %30.00 in9.0 miWest (280°)10.4 mphClear
4:50 AM23.0 °F21.2 °F93 %30.00 in9.0 miWest (280°)8.1 mphClear
5:10 AM23.0 °F21.2 °F93 %30.00 in8.0 miWest (280°)9.2 mphClear
5:30 AM23.0 °F21.2 °F93 %30.01 in8.0 miWest (280°)10.4 mphClear
6:10 AM23.0 °F21.2 °F93 %30.01 in8.0 miWest (280°)8.1 mphClear
6:30 AM23.0 °F19.4 °F86 %30.02 in9.0 miWest (280°)8.1 mphClear
6:50 AM21.2 °F19.4 °F93 %30.02 in9.0 miWest (280°)9.2 mphClear
7:10 AM19.4 °F17.6 °F93 %30.03 in8.0 miWest (270°)10.4 mphClear
7:30 AM19.4 °F19.4 °F100 %30.03 in7.0 miWest (260°)10.4 mphClear
7:50 AM19.4 °F17.6 °F93 %30.02 in7.0 miWSW (250°)9.2 mphClear
8:10 AM19.4 °F17.6 °F93 %30.03 in7.0 miWSW (250°)11.5 mphClear
8:30 AM23.0 °F19.4 °F86 %30.03 in7.0 miWSW (250°)11.5 mphClear
8:50 AM23.0 °F19.4 °F86 %30.04 in8.0 miWSW (250°)8.1 mphClear
9:10 AM23.0 °F19.4 °F86 %30.04 in9.0 miWSW (250°)6.9 mphClear
9:30 AM24.8 °F23.0 °F93 %30.04 in9.0 miWSW (250°)6.9 mphClear
9:50 AM26.6 °F23.0 °F86 %30.04 in9.0 miWest (270°)12.7 mphClear
10:10 AM28.4 °F23.0 °F80 %30.04 in10.0 miWest (260°)10.4 mphClear
10:30 AM30.2 °F24.8 °F80 %30.04 in10.0 miWSW (250°)8.1 mphClear
10:50 AM32.0 °F24.8 °F75 %30.04 in10.0 miWest (260°)11.5 mphClear
11:10 AM32.0 °F24.8 °F75 %30.04 in10.0 miWest (270°)13.8 mphClear
11:30 AM32.0 °F26.6 °F80 %30.05 in10.0 miWest (280°)11.5 mphClear
11:50 AM33.8 °F28.4 °F81 %30.04 in10.0 miWest (280°)10.4 mphClear
12:10 PM33.8 °F28.4 °F81 %30.03 in10.0 miWSW (250°)13.8 mphClear
12:30 PM35.6 °F28.4 °F75 %30.02 in10.0 miWSW (250°)11.5 mphClear
12:50 PM35.6 °F28.4 °F75 %30.01 in10.0 miWSW (250°)12.7 mphClear
1:10 PM35.6 °F28.4 °F75 %30.00 in10.0 miWest (260°)12.7 mphClear
1:30 PM37.4 °F28.4 °F70 %29.99 in10.0 miWSW (250°)12.7 mphClear
1:50 PM37.4 °F28.4 °F70 %29.99 in10.0 miWSW (250°)11.5 mphClear
2:10 PM37.4 °F30.2 °F75 %29.98 in10.0 miWSW (250°)9.2 mphClear
2:30 PM39.2 °F32.0 °F75 %29.98 in10.0 miWSW (250°)8.1 mphClear
2:50 PM39.2 °F30.2 °F70 %29.97 in10.0 miWSW (250°)12.7 mphClear
3:10 PM39.2 °F30.2 °F70 %29.97 in10.0 miWSW (240°)10.4 mphClear
3:30 PM41.0 °F32.0 °F70 %29.96 in10.0 miWSW (240°)9.2 mphClear
3:50 PM41.0 °F32.0 °F70 %29.96 in10.0 miWSW (250°)9.2 mphClear
4:10 PM41.0 °F32.0 °F70 %29.95 in10.0 miWSW (240°)8.1 mphClear
4:30 PM42.8 °F32.0 °F66 %29.94 in10.0 miWSW (240°)9.2 mphClear
4:50 PM44.6 °F32.0 °F61 %29.94 in10.0 miWSW (240°)10.4 mphClear
5:10 PM44.6 °F32.0 °F61 %29.94 in10.0 miWSW (250°)9.2 mphClear
5:30 PM41.0 °F30.2 °F65 %29.95 in10.0 miWSW (250°)8.1 mphClear
5:50 PM41.0 °F30.2 °F65 %29.95 in10.0 miWSW (250°)6.9 mphClear
6:10 PM39.2 °F28.4 °F65 %29.95 in10.0 miWSW (250°)8.1 mphClear
6:30 PM39.2 °F28.4 °F65 %29.95 in10.0 miWSW (240°)8.1 mphClear
6:50 PM35.6 °F28.4 °F75 %29.95 in10.0 miSW (230°)8.1 mphClear
7:10 PM35.6 °F26.6 °F70 %29.95 in10.0 miWSW (240°)9.2 mphClear
7:30 PM35.6 °F28.4 °F75 %29.95 in10.0 miWSW (240°)11.5 mphClear
7:50 PM35.6 °F26.6 °F70 %29.95 in10.0 miWSW (240°)9.2 mphClear
8:10 PM35.6 °F26.6 °F70 %29.95 in10.0 miWSW (250°)10.4 mphClear
8:30 PM33.8 °F26.6 °F75 %29.95 in10.0 miWSW (240°)9.2 mphClear
8:50 PM33.8 °F26.6 °F75 %29.95 in10.0 miWSW (250°)12.7 mphClear
9:10 PM35.6 °F26.6 °F70 %29.96 in10.0 miWSW (250°)13.8 mphPartly Cloudy
9:30 PM35.6 °F26.6 °F70 %29.96 in10.0 miWSW (250°)13.8 mphPartly Cloudy
9:50 PM35.6 °F26.6 °F70 %29.96 in10.0 miWSW (250°)11.5 mphScattered Clouds
10:10 PM32.0 °F26.6 °F80 %29.97 in10.0 miWest (270°)6.9 mphPartly Cloudy
10:30 PM32.0 °F24.8 °F75 %29.96 in10.0 miWest (260°)8.1 mphClear
10:50 PM33.8 °F24.8 °F70 %29.96 in10.0 miWSW (250°)9.2 mphClear
11:10 PM32.0 °F24.8 °F75 %29.97 in10.0 miWest (280°)8.1 mphClear
11:50 PM33.8 °F26.6 °F75 %29.97 in10.0 miWNW (290°)8.1 mphClear
Hourly data recorded from KAVK, located miles away from Alva, Oklahoma







STORIES FROM OUR PARTNERS